sat.trackr.live / text

‹ back to catalog

STARLINK-3561

NORAD 52284 · 2022-041Z

PAYLOAD ACTIVE UNKNOWN

§ Identity

Operator
Country
US
Launch date
2022-04-21
Launch site
AFETR
Launch vehicle
Mass (kg)
RCS (m²)

Purposes: comms

External: N2YO · Heavens-Above · Gunter

§ Orbital elements

Epoch: 2026-09-19T17:54:26.440704Z

Period
93.85 min
Inclination
53.1588°
Eccentricity
0.0001373
Mean motion
15.34367642 rev/d
Perigee alt
461.9 km
Apogee alt
463.7 km
Semi-major
6,840.9 km
B*
1.2882e-4
RAAN
295.6007°
Arg perigee
83.9327°
Mean anomaly
276.1832°
Rev number
24,396

§ Raw data

STARLINK-35611 52284U 22041Z   26262.74613936  .00003974  00000+0  12882-3 0  99932 52284  53.1588 295.6007 0001373  83.9327 276.1832 15.34367642243962

JSON: /api/v1/satellites/52284 · /tle

For live sub-satellite position, see the globe view (requires WebGL).

§ Visibility from observer

Set your observer location to see the next 7 days of passes ≥ 10°. The values pass through the URL so the page stays shareable.

No JS? Fill the form by hand. The geolocation button needs JavaScript.